Location: Béaulencourt
(50.0796°N, 2.8795°E)
Time: 17:30:37
(UTC+00:00)

Envisat - Pass Details

Date: 17 March 2026
Orbit: 761 x 762 km, 98.4° (Epoch: 14 April)

Event Time Altitude Azimuth Distance (km) Brightness Sun altitude
Rises 04:45:48 0° 360° (N) 3,238 6.4 -12.4°
Reaches altitude 10° 04:49:55 10° 327° (NNW) 2,306 5.3 -11.7°
Maximum altitude 04:51:20 11° 311° (NW) 2,223 5.0 -11.5°
Drops below altitude 10° 04:52:46 10° 294° (WNW) 2,302 5.0 -11.3°
Enters shadow 04:52:58 10° 292° (WNW) 2,325 5.0 -11.2°
